| time (UTC) | temp F | wind direction | speed knots | gust knots | rain 1hr in | rain 24hr in | rain mn in | humidity % | barometer mb |
| 20260509143502 | 62 | 178 | 0.9 | 7.8 | 0.00 | 0.00 | 0.00 | 88 | 1010.8 |
| 20260509143009 | 62 | 177 | 2.6 | 5.2 | 0.00 | 0.00 | 0.00 | 89 | 1011.0 |
| 20260509142605 | 62 | 172 | 1.7 | 5.2 | 0.00 | 0.00 | 0.00 | 89 | 1010.9 |
| 20260509142002 | 61 | 195 | 0.0 | 6.1 | 0.00 | 0.00 | 0.00 | 89 | 1011.1 |
| 20260509141510 | 61 | 202 | 0.9 | 6.1 | 0.00 | 0.00 | 0.00 | 89 | 1011.1 |
| 20260509141103 | 61 | 224 | 0.0 | 4.3 | 0.00 | 0.00 | 0.00 | 89 | 1011.1 |
| 20260509140502 | 61 | 200 | 0.9 | 3.5 | 0.00 | 0.00 | 0.00 | 89 | 1011.3 |
| 20260509140008 | 61 | 200 | 0.0 | 3.5 | 0.00 | 0.00 | 0.00 | 90 | 1011.5 |
| 20260509135603 | 60 | 184 | 0.9 | 3.5 | 0.00 | 0.00 | 0.00 | 89 | 1011.4 |
| 20260509135002 | 60 | 175 | 0.0 | 1.7 | 0.00 | 0.00 | 0.00 | 91 | 1011.3 |
| 20260509134508 | 60 | 175 | 0.0 | 4.3 | 0.00 | 0.00 | 0.00 | 90 | 1011.4 |
| 20260509134103 | 59 | 175 | 0.9 | 4.3 | 0.00 | 0.00 | 0.00 | 91 | 1011.4 |
| 20260509133503 | 59 | 174 | 0.0 | 0.0 | 0.00 | 0.00 | 0.00 | 90 | 1011.6 |
| 20260509133013 | 59 | 167 | 0.0 | 0.0 | 0.00 | 0.00 | 0.00 | 91 | 1011.8 |
| 20260509132604 | 59 | 167 | 0.0 | 3.5 | 0.00 | 0.00 | 0.00 | 91 | 1012.0 |
| 20260509132002 | 58 | 200 | 0.0 | 0.0 | 0.00 | 0.00 | 0.00 | 91 | 1012.2 |
| 20260509131509 | 58 | 200 | 0.0 | 5.2 | 0.00 | 0.00 | 0.00 | 92 | 1012.2 |
| 20260509131101 | 58 | 196 | 0.0 | 5.2 | 0.00 | 0.00 | 0.00 | 92 | 1012.2 |
| 20260509130502 | 57 | 227 | 0.0 | 0.0 | 0.00 | 0.00 | 0.00 | 93 | 1012.2 |
| 20260509130009 | 57 | 229 | 0.0 | 0.0 | 0.00 | 0.00 | 0.00 | 95 | 1012.4 |
| 20260509125602 | 56 | 202 | 0.0 | 0.0 | 0.00 | 0.00 | 0.00 | 95 | 1012.4 |
| 20260509125004 | 56 | 202 | 0.0 | 4.3 | 0.00 | 0.00 | 0.00 | 97 | 1012.3 |
| 20260509124509 | 55 | 205 | 0.0 | 4.3 | 0.00 | 0.00 | 0.00 | 97 | 1012.3 |
| 20260509124103 | 54 | 188 | 0.0 | 1.7 | 0.00 | 0.00 | 0.00 | 97 | 1012.4 |
| 20260509123503 | 53 | 183 | 0.0 | 0.0 | 0.00 | 0.00 | 0.00 | 97 | 1012.3 |
| 20260509123010 | 53 | 183 | 0.0 | 0.0 | 0.00 | 0.00 | 0.00 | 97 | 1012.2 |
| 20260509122601 | 52 | 183 | 0.0 | 0.9 | 0.00 | 0.00 | 0.00 | 97 | 1012.3 |
| 20260509122002 | 52 | 193 | 0.0 | 5.2 | 0.00 | 0.00 | 0.00 | 97 | 1012.4 |
| 20260509121508 | 51 | 193 | 0.0 | 5.2 | 0.00 | 0.00 | 0.00 | 97 | 1012.1 |
| 20260509121104 | 50 | 217 | 0.0 | 5.2 | 0.00 | 0.00 | 0.00 | 97 | 1012.1 |
| 20260509120503 | 49 | 197 | 0.0 | 0.0 | 0.00 | 0.00 | 0.00 | 97 | 1011.9 |
| 20260509120010 | 49 | 197 | 0.0 | 0.0 | 0.00 | 0.00 | 0.00 | 97 | 1012.1 |
| 20260509115602 | 48 | 197 | 0.0 | 0.9 | 0.00 | 0.00 | 0.00 | 97 | 1012.1 |
| 20260509115108 | 48 | 197 | 0.0 | 0.9 | 0.00 | 0.00 | 0.00 | 96 | 1012.3 |
| 20260509114508 | 47 | 197 | 0.0 | 0.0 | 0.00 | 0.00 | 0.00 | 96 | 1012.1 |
| 20260509114103 | 47 | 197 | 0.0 | 0.0 | 0.00 | 0.00 | 0.00 | 96 | 1011.9 |
| 20260509113503 | 46 | 197 | 0.0 | 0.0 | 0.00 | 0.00 | 0.00 | 95 | 1012.0 |
| 20260509113010 | 46 | 197 | 0.0 | 0.0 | 0.00 | 0.00 | 0.00 | 95 | 1011.9 |
| 20260509112601 | 46 | 197 | 0.0 | 0.0 | 0.00 | 0.00 | 0.00 | 95 | 1012.0 |
| 20260509112003 | 46 | 197 | 0.0 | 0.0 | 0.00 | 0.00 | 0.00 | 95 | 1012.0 |
| 20260509111508 | 46 | 197 | 0.0 | 0.0 | 0.00 | 0.00 | 0.00 | 95 | 1012.0 |
| 20260509111103 | 46 | 197 | 0.0 | 0.0 | 0.00 | 0.00 | 0.00 | 95 | 1012.0 |
| 20260509110501 | 46 | 197 | 0.0 | 0.0 | 0.00 | 0.00 | 0.00 | 95 | 1012.0 |
| 20260509110012 | 46 | 197 | 0.0 | 0.0 | 0.00 | 0.00 | 0.00 | 95 | 1012.1 |
| 20260509105602 | 46 | 197 | 0.0 | 0.0 | 0.00 | 0.00 | 0.00 | 95 | 1012.0 |
| 20260509105003 | 46 | 197 | 0.0 | 0.0 | 0.00 | 0.00 | 0.00 | 95 | 1012.0 |
| 20260509104508 | 46 | 197 | 0.0 | 0.0 | 0.00 | 0.00 | 0.00 | 95 | 1011.9 |
| 20260509104108 | 46 | 197 | 0.0 | 0.0 | 0.00 | 0.00 | 0.00 | 95 | 1011.9 |
| 20260509103502 | 46 | 197 | 0.0 | 0.0 | 0.00 | 0.00 | 0.00 | 94 | 1011.7 |
| 20260509103014 | 46 | 197 | 0.0 | 0.0 | 0.00 | 0.00 | 0.00 | 94 | 1011.5 |
| 20260509102602 | 46 | 197 | 0.0 | 0.0 | 0.00 | 0.00 | 0.00 | 94 | 1011.4 |
| 20260509102001 | 46 | 197 | 0.0 | 0.0 | 0.00 | 0.00 | 0.00 | 94 | 1011.4 |
| 20260509101509 | 46 | 197 | 0.0 | 0.0 | 0.00 | 0.00 | 0.00 | 94 | 1011.4 |
| 20260509101104 | 46 | 197 | 0.0 | 0.0 | 0.00 | 0.00 | 0.00 | 94 | 1011.3 |
| 20260509100503 | 46 | 197 | 0.0 | 0.0 | 0.00 | 0.00 | 0.00 | 94 | 1011.3 |
| 20260509100014 | 46 | 197 | 0.0 | 0.0 | 0.00 | 0.00 | 0.00 | 94 | 1011.2 |
| 20260509095607 | 46 | 197 | 0.0 | 0.0 | 0.00 | 0.00 | 0.00 | 94 | 1011.2 |
| 20260509095106 | 46 | 197 | 0.0 | 0.0 | 0.00 | 0.00 | 0.00 | 94 | 1011.1 |
| 20260509094507 | 46 | 197 | 0.0 | 0.0 | 0.00 | 0.00 | 0.00 | 94 | 1011.2 |
| 20260509094010 | 46 | 197 | 0.0 | 0.0 | 0.00 | 0.00 | 0.00 | 94 | 1011.1 |
| 20260509093605 | 46 | 197 | 0.0 | 0.0 | 0.00 | 0.00 | 0.00 | 94 | 1011.1 |
| 20260509093004 | 46 | 197 | 0.0 | 0.0 | 0.00 | 0.00 | 0.00 | 94 | 1011.2 |
| 20260509092516 | 46 | 197 | 0.0 | 0.0 | 0.00 | 0.00 | 0.00 | 94 | 1011.3 |
| 20260509092103 | 46 | 197 | 0.0 | 0.0 | 0.00 | 0.00 | 0.00 | 93 | 1011.3 |
| 20260509091504 | 46 | 197 | 0.0 | 0.0 | 0.00 | 0.00 | 0.00 | 93 | 1011.5 |
| 20260509091014 | 46 | 197 | 0.0 | 0.0 | 0.00 | 0.00 | 0.00 | 93 | 1011.7 |
| 20260509090605 | 47 | 197 | 0.0 | 0.0 | 0.00 | 0.00 | 0.00 | 93 | 1011.6 |
| 20260509090006 | 47 | 197 | 0.0 | 0.0 | 0.00 | 0.00 | 0.00 | 93 | 1011.6 |
| 20260509085509 | 47 | 197 | 0.0 | 0.0 | 0.00 | 0.00 | 0.00 | 93 | 1011.7 |
| 20260509085105 | 47 | 197 | 0.0 | 0.0 | 0.00 | 0.00 | 0.00 | 94 | 1011.7 |
| 20260509084504 | 47 | 197 | 0.0 | 0.0 | 0.00 | 0.00 | 0.00 | 93 | 1011.6 |
| 20260509084013 | 47 | 197 | 0.0 | 0.0 | 0.00 | 0.00 | 0.00 | 93 | 1011.6 |
| 20260509083605 | 47 | 197 | 0.0 | 0.0 | 0.00 | 0.00 | 0.00 | 93 | 1011.5 |
| 20260509083010 | 47 | 197 | 0.0 | 0.0 | 0.00 | 0.00 | 0.00 | 93 | 1011.6 |
| 20260509082511 | 47 | 197 | 0.0 | 0.0 | 0.00 | 0.00 | 0.00 | 93 | 1011.5 |
| 20260509082106 | 47 | 197 | 0.0 | 0.0 | 0.00 | 0.00 | 0.00 | 93 | 1011.6 |
| 20260509081511 | 47 | 197 | 0.0 | 0.0 | 0.00 | 0.00 | 0.00 | 93 | 1011.5 |
| 20260509081010 | 47 | 197 | 0.0 | 0.0 | 0.00 | 0.00 | 0.00 | 93 | 1011.6 |
| 20260509080604 | 47 | 197 | 0.0 | 0.0 | 0.00 | 0.00 | 0.00 | 93 | 1011.7 |
| 20260509080003 | 47 | 197 | 0.0 | 0.9 | 0.00 | 0.00 | 0.00 | 93 | 1011.7 |
| 20260509075510 | 47 | 197 | 0.0 | 0.9 | 0.00 | 0.00 | 0.00 | 93 | 1011.7 |
| 20260509075105 | 47 | 197 | 0.0 | 0.9 | 0.00 | 0.00 | 0.00 | 93 | 1011.8 |
| 20260509074509 | 48 | 197 | 0.0 | 0.9 | 0.00 | 0.00 | 0.00 | 92 | 1011.8 |
| 20260509074010 | 48 | 197 | 0.0 | 0.0 | 0.00 | 0.00 | 0.00 | 92 | 1012.0 |
| 20260509073604 | 48 | 197 | 0.0 | 0.0 | 0.00 | 0.00 | 0.00 | 92 | 1012.0 |
| 20260509073005 | 48 | 197 | 0.0 | 0.0 | 0.00 | 0.00 | 0.00 | 92 | 1012.1 |
| 20260509072510 | 48 | 197 | 0.0 | 0.0 | 0.00 | 0.00 | 0.00 | 92 | 1012.0 |
| 20260509072103 | 48 | 197 | 0.0 | 0.0 | 0.00 | 0.00 | 0.00 | 92 | 1012.0 |
| 20260509071504 | 48 | 197 | 0.0 | 0.0 | 0.00 | 0.00 | 0.00 | 92 | 1012.0 |
| 20260509071010 | 48 | 197 | 0.0 | 0.0 | 0.00 | 0.00 | 0.00 | 91 | 1012.1 |
| 20260509070604 | 48 | 197 | 0.0 | 0.0 | 0.00 | 0.00 | 0.00 | 91 | 1012.2 |
| 20260509070002 | 48 | 197 | 0.0 | 0.9 | 0.00 | 0.00 | 0.00 | 91 | 1012.2 |
| 20260509065509 | 49 | 197 | 0.0 | 0.9 | 0.00 | 0.00 | 0.00 | 91 | 1012.3 |
| 20260509065103 | 49 | 197 | 0.0 | 0.0 | 0.00 | 0.00 | 0.00 | 91 | 1012.3 |
| 20260509064504 | 49 | 197 | 0.0 | 0.0 | 0.00 | 0.00 | 0.00 | 90 | 1012.3 |
| 20260509064008 | 49 | 197 | 0.0 | 0.0 | 0.00 | 0.00 | 0.00 | 90 | 1012.2 |
| 20260509063605 | 49 | 197 | 0.0 | 0.0 | 0.00 | 0.00 | 0.00 | 90 | 1012.3 |
| 20260509063004 | 49 | 197 | 0.0 | 0.0 | 0.00 | 0.00 | 0.00 | 90 | 1012.4 |
| 20260509062511 | 49 | 197 | 0.0 | 0.0 | 0.00 | 0.00 | 0.00 | 90 | 1012.5 |
| 20260509062105 | 49 | 197 | 0.0 | 0.0 | 0.00 | 0.00 | 0.00 | 90 | 1012.5 |
| 20260509061504 | 49 | 197 | 0.0 | 0.0 | 0.00 | 0.00 | 0.00 | 90 | 1012.6 |
| 20260509061010 | 49 | 197 | 0.0 | 0.0 | 0.00 | 0.00 | 0.00 | 90 | 1012.6 |
| 20260509060606 | 49 | 197 | 0.0 | 0.0 | 0.00 | 0.00 | 0.00 | 90 | 1012.8 |
| 20260509060004 | 50 | 197 | 0.0 | 0.0 | 0.00 | 0.00 | 0.00 | 89 | 1012.9 |
| 20260509055510 | 50 | 197 | 0.0 | 0.0 | 0.00 | 0.00 | 0.00 | 89 | 1012.9 |
| 20260509055105 | 50 | 197 | 0.0 | 0.0 | 0.00 | 0.00 | 0.00 | 89 | 1012.9 |
| 20260509054503 | 50 | 197 | 0.0 | 0.0 | 0.00 | 0.00 | 0.00 | 89 | 1013.0 |
| 20260509054009 | 50 | 197 | 0.0 | 0.0 | 0.00 | 0.00 | 0.00 | 89 | 1013.1 |
| 20260509053604 | 50 | 197 | 0.0 | 0.0 | 0.00 | 0.00 | 0.00 | 88 | 1013.2 |
| 20260509053003 | 50 | 197 | 0.0 | 0.0 | 0.00 | 0.00 | 0.00 | 88 | 1013.3 |
| 20260509052509 | 50 | 197 | 0.0 | 0.0 | 0.00 | 0.00 | 0.00 | 89 | 1013.4 |
| 20260509052104 | 50 | 197 | 0.0 | 0.0 | 0.00 | 0.00 | 0.00 | 88 | 1013.4 |
| 20260509051504 | 50 | 197 | 0.0 | 0.0 | 0.00 | 0.00 | 0.00 | 88 | 1013.5 |
| 20260509051010 | 50 | 197 | 0.0 | 0.0 | 0.00 | 0.00 | 0.00 | 88 | 1013.5 |
| 20260509050603 | 50 | 197 | 0.0 | 0.0 | 0.00 | 0.00 | 0.00 | 88 | 1013.6 |
| 20260509050006 | 51 | 197 | 0.0 | 0.0 | 0.00 | 0.00 | 0.00 | 88 | 1013.6 |
| 20260509045509 | 51 | 197 | 0.0 | 0.0 | 0.00 | 0.00 | 0.00 | 88 | 1013.7 |
| 20260509045103 | 51 | 197 | 0.0 | 0.0 | 0.00 | 0.00 | 0.00 | 88 | 1013.7 |
| 20260509044504 | 51 | 197 | 0.0 | 0.0 | 0.00 | 0.00 | 0.00 | 88 | 1013.8 |
| 20260509044012 | 51 | 197 | 0.0 | 0.0 | 0.00 | 0.00 | 0.00 | 88 | 1013.8 |
| 20260509043603 | 51 | 197 | 0.0 | 0.0 | 0.00 | 0.00 | 0.00 | 88 | 1013.8 |
| 20260509043004 | 51 | 197 | 0.0 | 0.0 | 0.00 | 0.00 | 0.00 | 88 | 1013.8 |
| 20260509042509 | 51 | 197 | 0.0 | 0.0 | 0.00 | 0.00 | 0.00 | 88 | 1013.7 |
| 20260509042103 | 51 | 197 | 0.0 | 0.0 | 0.00 | 0.00 | 0.00 | 88 | 1013.7 |
| 20260509041506 | 51 | 197 | 0.0 | 0.0 | 0.00 | 0.00 | 0.00 | 87 | 1013.7 |
| 20260509041004 | 51 | 197 | 0.0 | 0.0 | 0.00 | 0.00 | 0.00 | 87 | 1013.7 |
| 20260509040503 | 51 | 197 | 0.0 | 0.0 | 0.00 | 0.00 | 0.00 | 87 | 1013.6 |
| 20260509040011 | 51 | 197 | 0.0 | 0.0 | 0.00 | 0.00 | 0.00 | 86 | 1013.7 |
| 20260509035604 | 52 | 197 | 0.0 | 0.0 | 0.00 | 0.00 | 0.00 | 87 | 1013.7 |
| 20260509035004 | 52 | 197 | 0.0 | 0.0 | 0.00 | 0.00 | 0.00 | 87 | 1013.6 |
| 20260509034510 | 52 | 197 | 0.0 | 0.0 | 0.00 | 0.00 | 0.00 | 87 | 1013.7 |
| 20260509034104 | 52 | 197 | 0.0 | 0.0 | 0.00 | 0.00 | 0.00 | 87 | 1013.6 |
| 20260509033504 | 52 | 197 | 0.0 | 0.0 | 0.00 | 0.00 | 0.00 | 87 | 1013.7 |
| 20260509033010 | 52 | 197 | 0.0 | 0.0 | 0.00 | 0.00 | 0.00 | 87 | 1013.7 |
| 20260509032605 | 52 | 197 | 0.0 | 0.0 | 0.00 | 0.00 | 0.00 | 87 | 1013.6 |
| 20260509032004 | 52 | 197 | 0.0 | 0.0 | 0.00 | 0.00 | 0.00 | 86 | 1013.6 |
| 20260509031513 | 52 | 197 | 0.0 | 0.0 | 0.00 | 0.00 | 0.00 | 86 | 1013.5 |
| 20260509031105 | 52 | 197 | 0.0 | 0.0 | 0.00 | 0.00 | 0.00 | 86 | 1013.6 |
| 20260509030504 | 52 | 197 | 0.0 | 0.0 | 0.00 | 0.00 | 0.00 | 86 | 1013.6 |
| 20260509030014 | 52 | 197 | 0.0 | 0.0 | 0.00 | 0.00 | 0.00 | 86 | 1013.7 |
| 20260509025603 | 52 | 197 | 0.0 | 0.0 | 0.00 | 0.00 | 0.00 | 85 | 1013.9 |
| 20260509025003 | 52 | 197 | 0.0 | 0.0 | 0.00 | 0.00 | 0.00 | 85 | 1013.9 |
| 20260509024511 | 52 | 197 | 0.0 | 0.0 | 0.00 | 0.00 | 0.00 | 85 | 1013.9 |
| 20260509024104 | 53 | 197 | 0.0 | 0.0 | 0.00 | 0.00 | 0.00 | 85 | 1013.8 |
| 20260509023502 | 53 | 197 | 0.0 | 0.0 | 0.00 | 0.00 | 0.00 | 85 | 1014.0 |
| 20260509023016 | 53 | 197 | 0.0 | 0.0 | 0.00 | 0.00 | 0.00 | 85 | 1013.9 |
| 20260509022604 | 53 | 197 | 0.0 | 0.0 | 0.00 | 0.00 | 0.00 | 85 | 1014.0 |
| 20260509022004 | 53 | 197 | 0.0 | 0.0 | 0.00 | 0.00 | 0.00 | 84 | 1014.0 |
| 20260509021510 | 53 | 197 | 0.0 | 0.0 | 0.00 | 0.00 | 0.00 | 84 | 1014.0 |
| 20260509021103 | 53 | 197 | 0.0 | 0.0 | 0.00 | 0.00 | 0.00 | 83 | 1014.0 |
| 20260509020505 | 53 | 197 | 0.0 | 0.0 | 0.00 | 0.00 | 0.00 | 83 | 1014.1 |
| 20260509020012 | 53 | 197 | 0.0 | 0.0 | 0.00 | 0.00 | 0.00 | 83 | 1014.0 |
| 20260509015604 | 54 | 197 | 0.0 | 0.0 | 0.00 | 0.00 | 0.00 | 83 | 1014.0 |
| 20260509015004 | 54 | 197 | 0.0 | 0.0 | 0.00 | 0.00 | 0.00 | 82 | 1013.9 |
| 20260509014511 | 54 | 197 | 0.0 | 0.0 | 0.00 | 0.00 | 0.00 | 81 | 1013.9 |
| 20260509014105 | 54 | 197 | 0.0 | 0.0 | 0.00 | 0.00 | 0.00 | 81 | 1013.9 |
| 20260509013503 | 54 | 197 | 0.0 | 0.0 | 0.00 | 0.00 | 0.00 | 81 | 1013.9 |
| 20260509013011 | 54 | 197 | 0.0 | 0.0 | 0.00 | 0.00 | 0.00 | 82 | 1013.9 |
| 20260509012605 | 55 | 197 | 0.0 | 0.0 | 0.00 | 0.00 | 0.00 | 81 | 1013.8 |
| 20260509012003 | 55 | 197 | 0.0 | 0.0 | 0.00 | 0.00 | 0.00 | 81 | 1013.8 |
| 20260509011510 | 55 | 197 | 0.0 | 0.0 | 0.00 | 0.00 | 0.00 | 81 | 1013.6 |
| 20260509011106 | 55 | 197 | 0.0 | 0.0 | 0.00 | 0.00 | 0.00 | 81 | 1013.6 |
| 20260509010504 | 56 | 197 | 0.0 | 0.0 | 0.00 | 0.00 | 0.00 | 79 | 1013.6 |
| 20260509010014 | 56 | 197 | 0.0 | 0.0 | 0.00 | 0.00 | 0.00 | 78 | 1013.6 |
| 20260509005511 | 56 | 197 | 0.0 | 0.0 | 0.00 | 0.00 | 0.00 | 79 | 1013.5 |
| 20260509005102 | 56 | 197 | 0.0 | 0.0 | 0.00 | 0.00 | 0.00 | 78 | 1013.4 |
| 20260509004507 | 57 | 197 | 0.0 | 0.0 | 0.00 | 0.00 | 0.00 | 76 | 1013.5 |
| 20260509004011 | 57 | 197 | 0.0 | 0.0 | 0.00 | 0.00 | 0.00 | 74 | 1013.5 |
| 20260509003604 | 58 | 197 | 0.0 | 0.0 | 0.00 | 0.00 | 0.00 | 73 | 1013.5 |
| 20260509003004 | 58 | 197 | 0.0 | 0.0 | 0.00 | 0.00 | 0.00 | 72 | 1013.4 |
| 20260509002511 | 58 | 197 | 0.0 | 0.0 | 0.00 | 0.00 | 0.00 | 72 | 1013.4 |
| 20260509002103 | 59 | 197 | 0.0 | 0.0 | 0.00 | 0.00 | 0.00 | 70 | 1013.3 |
| 20260509001504 | 59 | 197 | 0.0 | 0.0 | 0.00 | 0.00 | 0.00 | 69 | 1013.1 |
| 20260509001009 | 60 | 197 | 0.0 | 0.0 | 0.00 | 0.00 | 0.00 | 67 | 1013.0 |
| 20260509000605 | 60 | 197 | 0.0 | 0.0 | 0.00 | 0.00 | 0.00 | 67 | 1013.1 |
| 20260509000003 | 61 | 197 | 0.0 | 0.0 | 0.00 | 0.00 | 0.00 | 66 | 1013.1 |
| 20260508235509 | 61 | 197 | 0.0 | 0.0 | 0.00 | 0.00 | 0.00 | 65 | 1013.0 |
| 20260508235103 | 62 | 197 | 0.0 | 0.0 | 0.00 | 0.00 | 0.00 | 65 | 1013.0 |
| 20260508234503 | 62 | 197 | 0.0 | 0.0 | 0.00 | 0.00 | 0.00 | 65 | 1013.0 |
| 20260508234010 | 62 | 197 | 0.0 | 0.0 | 0.00 | 0.00 | 0.00 | 64 | 1013.1 |
| 20260508233604 | 63 | 197 | 0.0 | 0.0 | 0.00 | 0.00 | 0.00 | 64 | 1013.0 |
| 20260508233003 | 63 | 197 | 0.0 | 0.0 | 0.00 | 0.00 | 0.00 | 62 | 1013.1 |
| 20260508232509 | 64 | 197 | 0.0 | 0.0 | 0.00 | 0.00 | 0.00 | 58 | 1013.2 |
| 20260508232102 | 64 | 197 | 0.0 | 0.0 | 0.00 | 0.00 | 0.00 | 59 | 1013.2 |
| 20260508231503 | 64 | 197 | 0.0 | 0.0 | 0.00 | 0.00 | 0.00 | 56 | 1013.4 |
| 20260508231009 | 64 | 197 | 0.0 | 0.0 | 0.00 | 0.00 | 0.00 | 55 | 1013.2 |
| 20260508230603 | 64 | 197 | 0.0 | 0.0 | 0.00 | 0.00 | 0.00 | 56 | 1013.2 |
| 20260508230004 | 65 | 197 | 0.0 | 0.9 | 0.00 | 0.00 | 0.00 | 56 | 1013.2 |
| 20260508225510 | 65 | 197 | 0.0 | 0.9 | 0.00 | 0.01 | 0.00 | 56 | 1013.2 |
| 20260508225103 | 65 | 197 | 0.0 | 2.6 | 0.00 | 0.01 | 0.00 | 51 | 1013.2 |
| 20260508224502 | 65 | 197 | 0.0 | 3.5 | 0.00 | 0.01 | 0.00 | 55 | 1013.2 |
| 20260508224009 | 65 | 188 | 0.9 | 2.6 | 0.00 | 0.01 | 0.00 | 58 | 1013.2 |
| 20260508223604 | 66 | 233 | 0.0 | 1.7 | 0.00 | 0.01 | 0.00 | 48 | 1013.2 |
| 20260508223003 | 66 | 233 | 0.0 | 0.9 | 0.00 | 0.01 | 0.00 | 52 | 1013.2 |
| 20260508222510 | 66 | 233 | 0.0 | 0.9 | 0.00 | 0.01 | 0.00 | 43 | 1013.2 |
| 20260508222106 | 66 | 233 | 0.0 | 0.0 | 0.00 | 0.01 | 0.00 | 49 | 1013.2 |
| 20260508221504 | 66 | 233 | 0.0 | 1.7 | 0.00 | 0.01 | 0.00 | 50 | 1013.2 |
| 20260508221010 | 66 | 233 | 0.0 | 1.7 | 0.00 | 0.01 | 0.00 | 47 | 1013.0 |
| 20260508220602 | 67 | 233 | 0.0 | 1.7 | 0.00 | 0.01 | 0.00 | 51 | 1013.0 |
| 20260508220002 | 67 | 233 | 0.0 | 1.7 | 0.00 | 0.01 | 0.00 | 45 | 1012.9 |
| 20260508215509 | 67 | 233 | 0.0 | 3.5 | 0.00 | 0.03 | 0.00 | 41 | 1013.0 |
| 20260508215103 | 67 | 233 | 1.7 | 3.5 | 0.00 | 0.03 | 0.00 | 37 | 1012.8 |
| 20260508214504 | 67 | 188 | 0.0 | 2.6 | 0.00 | 0.03 | 0.00 | 39 | 1013.0 |
| 20260508214009 | 68 | 188 | 0.0 | 2.6 | 0.00 | 0.03 | 0.00 | 40 | 1013.1 |
| 20260508213604 | 68 | 217 | 0.9 | 2.6 | 0.00 | 0.03 | 0.00 | 43 | 1013.3 |
| 20260508213008 | 68 | 217 | 0.0 | 2.6 | 0.00 | 0.03 | 0.00 | 47 | 1013.2 |
| 20260508212517 | 68 | 217 | 0.9 | 2.6 | 0.00 | 0.03 | 0.00 | 41 | 1013.3 |
| 20260508212103 | 69 | 217 | 0.0 | 2.6 | 0.00 | 0.03 | 0.00 | 48 | 1013.4 |
| 20260508211505 | 69 | 217 | 0.0 | 2.6 | 0.00 | 0.03 | 0.00 | 41 | 1013.2 |
| 20260508211009 | 69 | 217 | 0.0 | 3.5 | 0.00 | 0.03 | 0.00 | 37 | 1013.2 |
| 20260508210604 | 69 | 217 | 0.9 | 3.5 | 0.00 | 0.03 | 0.00 | 33 | 1013.2 |
| 20260508210007 | 70 | 205 | 0.9 | 5.2 | 0.00 | 0.03 | 0.00 | 40 | 1013.2 |
| 20260508205509 | 70 | 170 | 1.7 | 8.7 | 0.00 | 0.21 | 0.00 | 38 | 1013.3 |
| 20260508205103 | 70 | 228 | 2.6 | 8.7 | 0.00 | 0.21 | 0.00 | 37 | 1013.3 |
| 20260508204503 | 70 | 209 | 1.7 | 6.1 | 0.00 | 0.21 | 0.00 | 33 | 1013.4 |
| 20260508204009 | 70 | 215 | 2.6 | 7.8 | 0.00 | 0.21 | 0.00 | 36 | 1013.4 |
| 20260508203605 | 71 | 208 | 0.0 | 7.8 | 0.00 | 0.21 | 0.00 | 35 | 1013.5 |
| 20260508203004 | 71 | 214 | 1.7 | 7.8 | 0.00 | 0.21 | 0.00 | 35 | 1013.4 |
| 20260508202509 | 71 | 155 | 1.7 | 7.8 | 0.00 | 0.21 | 0.00 | 36 | 1013.6 |
| 20260508202103 | 71 | 195 | 2.6 | 7.8 | 0.00 | 0.21 | 0.00 | 39 | 1013.8 |
| 20260508201503 | 72 | 210 | 0.9 | 6.1 | 0.00 | 0.21 | 0.00 | 35 | 1014.0 |
| 20260508201010 | 72 | 234 | 0.9 | 5.2 | 0.00 | 0.21 | 0.00 | 42 | 1014.0 |
| 20260508200603 | 72 | 176 | 2.6 | 5.2 | 0.00 | 0.21 | 0.00 | 38 | 1014.0 |
| 20260508200003 | 72 | 159 | 0.9 | 4.3 | 0.00 | 0.21 | 0.00 | 37 | 1013.9 |
| 20260508195510 | 72 | 202 | 0.9 | 2.6 | 0.00 | 0.21 | 0.00 | 40 | 1013.9 |
| 20260508195104 | 72 | 257 | 0.0 | 2.6 | 0.00 | 0.21 | 0.00 | 34 | 1014.0 |
| 20260508194504 | 72 | 214 | 0.0 | 2.6 | 0.00 | 0.21 | 0.00 | 38 | 1014.1 |
| 20260508194009 | 72 | 214 | 0.9 | 3.5 | 0.00 | 0.21 | 0.00 | 38 | 1014.2 |
| 20260508193603 | 71 | 215 | 1.7 | 5.2 | 0.00 | 0.21 | 0.00 | 34 | 1014.1 |
| 20260508193003 | 71 | 181 | 0.9 | 4.3 | 0.00 | 0.21 | 0.00 | 37 | 1014.2 |
| 20260508192512 | 71 | 202 | 1.7 | 3.5 | 0.00 | 0.21 | 0.00 | 35 | 1014.3 |
| 20260508192103 | 71 | 205 | 1.7 | 3.5 | 0.00 | 0.21 | 0.00 | 38 | 1014.4 |
| 20260508191503 | 71 | 216 | 1.7 | 5.2 | 0.00 | 0.21 | 0.00 | 37 | 1014.5 |
| 20260508191009 | 71 | 159 | 0.9 | 5.2 | 0.00 | 0.21 | 0.00 | 38 | 1014.8 |
| 20260508190603 | 72 | 191 | 1.7 | 5.2 | 0.00 | 0.21 | 0.00 | 38 | 1014.7 |
| 20260508190005 | 72 | 180 | 0.9 | 3.5 | 0.00 | 0.21 | 0.00 | 37 | 1014.7 |
| 20260508185509 | 71 | 304 | 0.9 | 6.1 | 0.00 | 0.21 | 0.00 | 33 | 1014.6 |
| 20260508185104 | 71 | 188 | 0.9 | 6.1 | 0.00 | 0.21 | 0.00 | 39 | 1014.7 |
| 20260508184507 | 71 | 230 | 0.9 | 3.5 | 0.00 | 0.21 | 0.00 | 40 | 1014.8 |
| 20260508184011 | 70 | 175 | 0.9 | 3.5 | 0.00 | 0.21 | 0.00 | 41 | 1014.9 |
| 20260508183603 | 70 | 174 | 0.9 | 3.5 | 0.00 | 0.21 | 0.00 | 39 | 1014.9 |
| 20260508183004 | 70 | 226 | 0.9 | 4.3 | 0.00 | 0.21 | 0.00 | 39 | 1015.0 |
| 20260508182513 | 71 | 172 | 0.9 | 4.3 | 0.00 | 0.21 | 0.00 | 39 | 1015.0 |
| 20260508182103 | 71 | 218 | 1.7 | 4.3 | 0.00 | 0.21 | 0.00 | 42 | 1015.0 |
| 20260508181502 | 71 | 181 | 0.0 | 2.6 | 0.00 | 0.21 | 0.00 | 39 | 1015.1 |
| 20260508181013 | 71 | 164 | 0.9 | 2.6 | 0.00 | 0.21 | 0.00 | 42 | 1015.2 |
| 20260508180604 | 71 | 135 | 0.0 | 2.6 | 0.00 | 0.21 | 0.00 | 47 | 1015.4 |
| 20260508180004 | 70 | 8 | 0.9 | 4.3 | 0.00 | 0.21 | 0.00 | 37 | 1015.3 |
| 20260508175509 | 70 | 214 | 1.7 | 4.3 | 0.00 | 0.21 | 0.00 | 37 | 1015.5 |
| 20260508175105 | 70 | 176 | 1.7 | 5.2 | 0.00 | 0.21 | 0.00 | 40 | 1015.5 |
| 20260508174505 | 70 | 205 | 1.7 | 5.2 | 0.00 | 0.21 | 0.00 | 40 | 1015.5 |
| 20260508174009 | 70 | 184 | 1.7 | 4.3 | 0.00 | 0.21 | 0.00 | 43 | 1015.6 |
| 20260508173603 | 70 | 170 | 0.0 | 1.7 | 0.00 | 0.21 | 0.00 | 43 | 1015.7 |
| 20260508173005 | 69 | 164 | 0.9 | 3.5 | 0.00 | 0.21 | 0.00 | 47 | 1015.8 |
| 20260508172509 | 69 | 167 | 0.9 | 3.5 | 0.00 | 0.21 | 0.00 | 52 | 1015.8 |
| 20260508172106 | 68 | 167 | 1.7 | 4.3 | 0.00 | 0.21 | 0.00 | 45 | 1016.0 |
| 20260508171507 | 68 | 226 | 0.0 | 4.3 | 0.00 | 0.21 | 0.00 | 44 | 1015.9 |
| 20260508171008 | 68 | 193 | 0.9 | 3.5 | 0.00 | 0.21 | 0.00 | 41 | 1016.0 |
| 20260508170603 | 68 | 225 | 0.9 | 3.5 | 0.00 | 0.21 | 0.00 | 44 | 1016.0 |
| 20260508170003 | 68 | 224 | 0.9 | 4.3 | 0.00 | 0.21 | 0.00 | 47 | 1016.1 |
| 20260508165509 | 68 | 228 | 1.7 | 4.3 | 0.00 | 0.21 | 0.00 | 47 | 1016.1 |
| 20260508165103 | 67 | 160 | 0.0 | 3.5 | 0.00 | 0.21 | 0.00 | 45 | 1016.1 |
| 20260508164503 | 67 | 6 | 1.7 | 4.3 | 0.00 | 0.21 | 0.00 | 46 | 1016.2 |
| 20260508164011 | 67 | 162 | 0.9 | 2.6 | 0.00 | 0.21 | 0.00 | 47 | 1016.4 |
| 20260508163602 | 67 | 340 | 0.9 | 4.3 | 0.00 | 0.21 | 0.00 | 46 | 1016.5 |
| 20260508163003 | 67 | 340 | 2.6 | 4.3 | 0.00 | 0.21 | 0.00 | 52 | 1016.6 |
| 20260508162509 | 66 | 324 | 0.9 | 3.5 | 0.00 | 0.21 | 0.00 | 46 | 1016.7 |
| 20260508162103 | 66 | 332 | 0.9 | 3.5 | 0.00 | 0.21 | 0.00 | 45 | 1016.8 |
| 20260508161504 | 66 | 255 | 0.0 | 6.1 | 0.00 | 0.21 | 0.00 | 42 | 1016.8 |
| 20260508161011 | 66 | 323 | 1.7 | 6.1 | 0.00 | 0.21 | 0.00 | 47 | 1016.9 |
| 20260508160604 | 66 | 337 | 1.7 | 3.5 | 0.00 | 0.21 | 0.00 | 52 | 1016.9 |
| 20260508160003 | 65 | 308 | 0.0 | 4.3 | 0.00 | 0.21 | 0.00 | 54 | 1016.9 |
| 20260508155511 | 65 | 347 | 1.7 | 4.3 | 0.00 | 0.22 | 0.00 | 55 | 1017.1 |
| 20260508155105 | 65 | 30 | 1.7 | 4.3 | 0.00 | 0.22 | 0.00 | 48 | 1017.0 |
| 20260508154503 | 64 | 290 | 0.0 | 4.3 | 0.00 | 0.22 | 0.00 | 60 | 1017.2 |
| 20260508154009 | 64 | 34 | 1.7 | 5.2 | 0.00 | 0.22 | 0.00 | 52 | 1017.1 |
| 20260508153603 | 63 | 347 | 1.7 | 5.2 | 0.00 | 0.22 | 0.00 | 57 | 1017.2 |
| 20260508153004 | 63 | 334 | 1.7 | 3.5 | 0.00 | 0.22 | 0.00 | 65 | 1017.2 |
| 20260508152510 | 63 | 248 | 0.9 | 3.5 | 0.00 | 0.22 | 0.00 | 59 | 1017.3 |
| 20260508152105 | 62 | 326 | 0.0 | 3.5 | 0.00 | 0.22 | 0.00 | 53 | 1017.4 |
| 20260508151503 | 62 | 320 | 0.9 | 3.5 | 0.00 | 0.22 | 0.00 | 58 | 1017.4 |
| 20260508151010 | 61 | 346 | 0.9 | 2.6 | 0.00 | 0.22 | 0.00 | 63 | 1017.5 |
| 20260508150603 | 60 | 230 | 0.0 | 3.5 | 0.00 | 0.22 | 0.00 | 65 | 1017.5 |
| 20260508150007 | 60 | 8 | 0.9 | 4.3 | 0.00 | 0.22 | 0.00 | 63 | 1017.5 |
| 20260508145509 | 59 | 347 | 0.9 | 4.3 | 0.00 | 0.25 | 0.00 | 67 | 1017.6 |
| 20260508145105 | 59 | 250 | 0.0 | 4.3 | 0.00 | 0.25 | 0.00 | 70 | 1017.5 |
| 20260508144504 | 58 | 348 | 0.9 | 1.7 | 0.00 | 0.25 | 0.00 | 78 | 1017.5 |
| 20260508144009 | 57 | 25 | 0.0 | 4.3 | 0.00 | 0.25 | 0.00 | 72 | 1017.4 |